Time,TemperatureF,DewpointF,PressureIn,WindDirection,WindDirectionDegrees,WindSpeedMPH,WindSpeedGustMPH,Humidity,HourlyPrecipIn,Conditions,Clouds,dailyrainin,SoftwareType,DateUTC
2013-10-13 00:00:00,48.4,38.3,30.33,NW,311,0.0,31.0,68,0.00,,,0.00,Wunderground v.1.15,2013-10-13 05:00:00,
2013-10-13 00:05:00,47.7,39.1,30.33,NW,311,0.0,31.0,72,0.00,,,0.00,Wunderground v.1.15,2013-10-13 05:05:00,
2013-10-13 00:10:00,47.0,38.4,30.33,NW,311,0.0,31.0,72,0.00,,,0.00,Wunderground v.1.15,2013-10-13 05:10:00,
2013-10-13 00:15:00,46.7,38.5,30.33,NW,311,0.0,31.0,73,0.00,,,0.00,Wunderground v.1.15,2013-10-13 05:15:00,
2013-10-13 00:25:00,46.7,38.1,30.34,NW,311,0.0,31.0,72,0.00,,,0.00,Wunderground v.1.15,2013-10-13 05:25:00,
2013-10-13 00:30:00,46.7,37.8,30.34,NW,311,0.0,31.0,71,0.00,,,0.00,Wunderground v.1.15,2013-10-13 05:30:00,
2013-10-13 00:35:00,47.0,37.7,30.34,NW,311,0.0,31.0,70,0.00,,,0.00,Wunderground v.1.15,2013-10-13 05:35:00,
2013-10-13 00:40:00,47.2,37.2,30.34,NW,311,0.0,31.0,68,0.00,,,0.00,Wunderground v.1.15,2013-10-13 05:40:00,
2013-10-13 00:45:00,47.7,36.5,30.34,NW,311,0.0,31.0,65,0.00,,,0.00,Wunderground v.1.15,2013-10-13 05:45:00,
2013-10-13 00:50:00,48.1,35.7,30.34,NW,311,0.0,31.0,62,0.00,,,0.00,Wunderground v.1.15,2013-10-13 05:50:00,
2013-10-13 01:00:00,49.3,35.1,30.34,NW,311,0.0,31.0,58,0.00,,,0.00,Wunderground v.1.15,2013-10-13 06:00:00,
2013-10-13 01:05:00,49.7,35.1,30.34,NW,311,0.0,31.0,57,0.00,,,0.00,Wunderground v.1.15,2013-10-13 06:05:00,
2013-10-13 01:10:00,49.9,35.3,30.34,NW,311,0.0,31.0,57,0.00,,,0.00,Wunderground v.1.15,2013-10-13 06:10:00,
2013-10-13 01:15:00,49.9,35.7,30.35,NW,311,0.0,31.0,58,0.00,,,0.00,Wunderground v.1.15,2013-10-13 06:15:00,
2013-10-13 01:20:00,49.8,36.0,30.35,NW,311,0.0,31.0,59,0.00,,,0.00,Wunderground v.1.15,2013-10-13 06:20:00,
2013-10-13 01:30:00,49.4,36.5,30.35,NW,311,0.0,31.0,61,0.00,,,0.00,Wunderground v.1.15,2013-10-13 06:30:00,
2013-10-13 01:35:00,49.3,36.4,30.35,NW,311,0.0,31.0,61,0.00,,,0.00,Wunderground v.1.15,2013-10-13 06:35:00,
2013-10-13 01:40:00,49.2,35.5,30.35,NW,311,0.0,31.0,59,0.00,,,0.00,Wunderground v.1.15,2013-10-13 06:40:00,
2013-10-13 01:45:00,49.4,35.2,30.35,NW,311,0.0,31.0,58,0.00,,,0.00,Wunderground v.1.15,2013-10-13 06:45:00,
2013-10-13 01:50:00,49.5,35.8,30.35,NW,311,0.0,31.0,59,0.00,,,0.00,Wunderground v.1.15,2013-10-13 06:50:00,
2013-10-13 01:55:00,49.3,37.6,30.35,NW,311,0.0,31.0,64,0.00,,,0.00,Wunderground v.1.15,2013-10-13 06:55:00,
2013-10-13 02:05:00,48.5,36.1,30.35,NW,311,0.0,31.0,62,0.00,,,0.00,Wunderground v.1.15,2013-10-13 07:05:00,
2013-10-13 02:10:00,48.6,35.7,30.36,NW,316,1.0,1.0,61,0.00,,,0.00,Wunderground v.1.15,2013-10-13 07:10:00,
2013-10-13 02:15:00,48.7,35.8,30.36,NW,319,1.0,31.0,61,0.00,,,0.00,Wunderground v.1.15,2013-10-13 07:15:00,
2013-10-13 02:20:00,48.8,35.9,30.36,NW,326,0.0,31.0,61,0.00,,,0.00,Wunderground v.1.15,2013-10-13 07:20:00,
2013-10-13 02:25:00,48.8,36.4,30.36,NNW,334,0.0,31.0,62,0.00,,,0.00,Wunderground v.1.15,2013-10-13 07:25:00,
2013-10-13 02:30:00,48.8,36.4,30.36,NNW,334,0.0,31.0,62,0.00,,,0.00,Wunderground v.1.15,2013-10-13 07:30:00,
2013-10-13 02:35:00,48.6,36.6,30.36,NNW,334,0.0,31.0,63,0.00,,,0.00,Wunderground v.1.15,2013-10-13 07:35:00,
2013-10-13 02:40:00,48.5,36.5,30.36,NNW,334,0.0,31.0,63,0.00,,,0.00,Wunderground v.1.15,2013-10-13 07:40:00,
2013-10-13 02:45:00,48.5,36.1,30.36,NNW,338,0.0,31.0,62,0.00,,,0.00,Wunderground v.1.15,2013-10-13 07:45:00,
2013-10-13 02:50:00,48.5,36.1,30.36,NNW,338,1.0,1.0,62,0.00,,,0.00,Wunderground v.1.15,2013-10-13 07:50:00,
2013-10-13 02:55:00,48.4,36.0,30.36,NNW,338,0.0,31.0,62,0.00,,,0.00,Wunderground v.1.15,2013-10-13 07:55:00,
2013-10-13 03:05:00,48.2,35.8,30.36,NNW,338,0.0,31.0,62,0.00,,,0.00,Wunderground v.1.15,2013-10-13 08:05:00,
2013-10-13 03:10:00,48.1,35.7,30.36,NNW,338,0.0,31.0,62,0.00,,,0.00,Wunderground v.1.15,2013-10-13 08:10:00,
2013-10-13 03:15:00,48.0,35.6,30.36,NNW,338,0.0,31.0,62,0.00,,,0.00,Wunderground v.1.15,2013-10-13 08:15:00,
2013-10-13 03:20:00,47.9,35.5,30.36,NNW,338,0.0,31.0,62,0.00,,,0.00,Wunderground v.1.15,2013-10-13 08:20:00,
2013-10-13 03:25:00,47.8,36.6,30.36,NNW,338,0.0,31.0,65,0.00,,,0.00,Wunderground v.1.15,2013-10-13 08:25:00,
2013-10-13 03:30:00,47.4,36.6,30.36,NNW,338,0.0,31.0,66,0.00,,,0.00,Wunderground v.1.15,2013-10-13 08:30:00,
2013-10-13 03:40:00,47.0,36.6,30.36,NNW,338,2.0,31.0,67,0.00,,,0.00,Wunderground v.1.15,2013-10-13 08:40:00,
2013-10-13 03:45:00,46.9,37.3,30.36,NNW,338,1.0,31.0,69,0.00,,,0.00,Wunderground v.1.15,2013-10-13 08:45:00,
2013-10-13 03:50:00,46.7,37.1,30.36,NNW,338,0.0,31.0,69,0.00,,,0.00,Wunderground v.1.15,2013-10-13 08:50:00,
2013-10-13 03:55:00,46.6,37.3,30.36,NNW,338,0.0,31.0,70,0.00,,,0.00,Wunderground v.1.15,2013-10-13 08:55:00,
2013-10-13 04:00:00,46.5,37.6,30.36,NNW,338,0.0,31.0,71,0.00,,,0.00,Wunderground v.1.15,2013-10-13 09:00:00,
2013-10-13 04:10:00,46.1,37.6,30.36,NNW,338,0.0,31.0,72,0.00,,,0.00,Wunderground v.1.15,2013-10-13 09:10:00,
2013-10-13 04:15:00,46.1,37.6,30.36,NNW,338,0.0,31.0,72,0.00,,,0.00,Wunderground v.1.15,2013-10-13 09:15:00,
2013-10-13 04:20:00,46.1,37.6,30.36,NNW,338,0.0,31.0,72,0.00,,,0.00,Wunderground v.1.15,2013-10-13 09:20:00,
2013-10-13 04:25:00,46.2,37.3,30.36,NNW,338,0.0,31.0,71,0.00,,,0.00,Wunderground v.1.15,2013-10-13 09:25:00,
2013-10-13 04:30:00,46.4,37.1,30.36,NNW,338,0.0,31.0,70,0.00,,,0.00,Wunderground v.1.15,2013-10-13 09:30:00,
2013-10-13 04:35:00,46.4,37.1,30.36,NNW,338,0.0,31.0,70,0.00,,,0.00,Wunderground v.1.15,2013-10-13 09:35:00,
2013-10-13 04:45:00,46.1,37.6,30.36,NNW,338,1.0,31.0,72,0.00,,,0.00,Wunderground v.1.15,2013-10-13 09:45:00,
2013-10-13 04:50:00,45.8,36.9,30.36,NNW,346,1.0,31.0,71,0.00,,,0.00,Wunderground v.1.15,2013-10-13 09:50:00,
2013-10-13 04:55:00,46.0,37.1,30.36,NNW,347,1.0,31.0,71,0.00,,,0.00,Wunderground v.1.15,2013-10-13 09:55:00,
2013-10-13 05:00:00,46.1,37.2,30.36,North,350,1.0,31.0,71,0.00,,,0.00,Wunderground v.1.15,2013-10-13 10:00:00,
2013-10-13 05:05:00,46.1,36.9,30.36,North,355,2.0,31.0,70,0.00,,,0.00,Wunderground v.1.15,2013-10-13 10:05:00,
2013-10-13 05:15:00,46.0,37.5,30.36,North,355,1.0,31.0,72,0.00,,,0.00,Wunderground v.1.15,2013-10-13 10:15:00,
2013-10-13 05:20:00,45.9,36.7,30.36,North,355,1.0,1.0,70,0.00,,,0.00,Wunderground v.1.15,2013-10-13 10:20:00,
2013-10-13 05:25:00,46.1,36.9,30.36,North,355,1.0,31.0,70,0.00,,,0.00,Wunderground v.1.15,2013-10-13 10:25:00,
2013-10-13 05:30:00,46.2,37.0,30.36,North,355,1.0,1.0,70,0.00,,,0.00,Wunderground v.1.15,2013-10-13 10:30:00,
2013-10-13 05:35:00,46.3,36.3,30.36,North,5,1.0,2.0,68,0.00,,,0.00,Wunderground v.1.15,2013-10-13 10:35:00,
2013-10-13 05:40:00,46.2,37.3,30.36,North,5,2.0,31.0,71,0.00,,,0.00,Wunderground v.1.15,2013-10-13 10:40:00,
2013-10-13 05:45:00,45.8,37.3,30.36,North,5,2.0,31.0,72,0.00,,,0.00,Wunderground v.1.15,2013-10-13 10:45:00,
2013-10-13 05:50:00,45.5,37.3,30.37,North,5,1.0,1.0,73,0.00,,,0.00,Wunderground v.1.15,2013-10-13 10:50:00,
2013-10-13 06:00:00,45.7,36.8,30.37,North,5,2.0,2.0,71,0.00,,,0.00,Wunderground v.1.15,2013-10-13 11:00:00,
2013-10-13 06:05:00,46.0,36.4,30.37,NNE,19,3.0,3.0,69,0.00,,,0.00,Wunderground v.1.15,2013-10-13 11:05:00,
2013-10-13 06:10:00,46.2,36.2,30.37,NNE,28,3.0,31.0,68,0.00,,,0.00,Wunderground v.1.15,2013-10-13 11:10:00,
2013-10-13 06:15:00,46.3,36.3,30.37,NNE,32,2.0,31.0,68,0.00,,,0.00,Wunderground v.1.15,2013-10-13 11:15:00,
2013-10-13 06:20:00,46.3,35.9,30.37,NNE,32,2.0,2.0,67,0.00,,,0.00,Wunderground v.1.15,2013-10-13 11:20:00,
2013-10-13 06:25:00,46.3,35.9,30.37,NE,34,2.0,31.0,67,0.00,,,0.00,Wunderground v.1.15,2013-10-13 11:25:00,
2013-10-13 06:30:00,46.1,36.1,30.37,NE,34,3.0,3.0,68,0.00,,,0.00,Wunderground v.1.15,2013-10-13 11:30:00,
2013-10-13 06:35:00,46.0,36.0,30.37,NE,34,3.0,31.0,68,0.00,,,0.00,Wunderground v.1.15,2013-10-13 11:35:00,
2013-10-13 06:40:00,45.8,35.8,30.37,NE,34,3.0,3.0,68,0.00,,,0.00,Wunderground v.1.15,2013-10-13 11:40:00,
2013-10-13 06:50:00,45.5,35.9,30.38,NE,34,3.0,31.0,69,0.00,,,0.00,Wunderground v.1.15,2013-10-13 11:50:00,
2013-10-13 06:55:00,45.3,36.1,30.38,NE,34,3.0,31.0,70,0.00,,,0.00,Wunderground v.1.15,2013-10-13 11:55:00,
2013-10-13 07:00:00,45.1,35.9,30.38,NE,34,2.0,31.0,70,0.00,,,0.00,Wunderground v.1.15,2013-10-13 12:00:00,
2013-10-13 07:05:00,45.1,35.5,30.38,NE,34,1.0,31.0,69,0.00,,,0.00,Wunderground v.1.15,2013-10-13 12:05:00,
2013-10-13 07:10:00,45.0,35.4,30.38,NE,34,1.0,31.0,69,0.00,,,0.00,Wunderground v.1.15,2013-10-13 12:10:00,
2013-10-13 07:15:00,44.9,35.3,30.38,NE,34,2.0,31.0,69,0.00,,,0.00,Wunderground v.1.15,2013-10-13 12:15:00,
2013-10-13 07:25:00,44.6,35.1,30.39,NE,34,1.0,31.0,69,0.00,,,0.00,Wunderground v.1.15,2013-10-13 12:25:00,
2013-10-13 07:30:00,44.3,35.1,30.39,NE,34,0.0,31.0,70,0.00,,,0.00,Wunderground v.1.15,2013-10-13 12:30:00,
2013-10-13 07:35:00,44.0,34.8,30.39,NE,34,0.0,31.0,70,0.00,,,0.00,Wunderground v.1.15,2013-10-13 12:35:00,
2013-10-13 07:40:00,43.5,34.7,30.39,NE,34,0.0,31.0,71,0.00,,,0.00,Wunderground v.1.15,2013-10-13 12:40:00,
2013-10-13 07:45:00,43.2,34.8,30.39,NE,34,0.0,31.0,72,0.00,,,0.00,Wunderground v.1.15,2013-10-13 12:45:00,
2013-10-13 07:55:00,42.9,34.8,30.40,NE,34,3.0,31.0,73,0.00,,,0.00,Wunderground v.1.15,2013-10-13 12:55:00,
2013-10-13 08:00:00,42.8,34.7,30.40,NE,34,3.0,3.0,73,0.00,,,0.00,Wunderground v.1.15,2013-10-13 13:00:00,
2013-10-13 08:05:00,42.7,34.6,30.40,NE,36,2.0,4.0,73,0.00,,,0.00,Wunderground v.1.15,2013-10-13 13:05:00,
2013-10-13 08:10:00,42.9,34.5,30.41,NE,36,3.0,31.0,72,0.00,,,0.00,Wunderground v.1.15,2013-10-13 13:10:00,
2013-10-13 08:15:00,42.8,34.7,30.41,NE,36,3.0,31.0,73,0.00,,,0.00,Wunderground v.1.15,2013-10-13 13:15:00,
2013-10-13 08:20:00,42.7,35.0,30.41,NE,36,4.0,4.0,74,0.00,,,0.00,Wunderground v.1.15,2013-10-13 13:20:00,
2013-10-13 08:30:00,43.2,35.5,30.41,NE,36,4.0,31.0,74,0.00,,,0.00,Wunderground v.1.15,2013-10-13 13:30:00,
2013-10-13 08:35:00,43.5,35.8,30.42,NE,36,4.0,31.0,74,0.00,,,0.00,Wunderground v.1.15,2013-10-13 13:35:00,
2013-10-13 08:40:00,43.9,36.1,30.42,NE,36,4.0,31.0,74,0.00,,,0.00,Wunderground v.1.15,2013-10-13 13:40:00,
2013-10-13 08:45:00,44.3,35.5,30.42,NE,55,4.0,31.0,71,0.00,,,0.00,Wunderground v.1.15,2013-10-13 13:45:00,
2013-10-13 08:50:00,44.7,35.9,30.42,ENE,77,5.0,5.0,71,0.00,,,0.00,Wunderground v.1.15,2013-10-13 13:50:00,
2013-10-13 09:00:00,45.9,36.3,30.42,East,92,7.0,31.0,69,0.00,,,0.00,Wunderground v.1.15,2013-10-13 14:00:00,
2013-10-13 09:05:00,46.6,37.0,30.42,East,94,7.0,31.0,69,0.00,,,0.00,Wunderground v.1.15,2013-10-13 14:05:00,
2013-10-13 09:10:00,47.2,36.4,30.42,ESE,119,8.0,31.0,66,0.00,,,0.00,Wunderground v.1.15,2013-10-13 14:10:00,
2013-10-13 09:15:00,47.9,36.3,30.42,SE,124,9.0,31.0,64,0.00,,,0.00,Wunderground v.1.15,2013-10-13 14:15:00,
2013-10-13 09:20:00,48.5,36.5,30.42,SE,125,10.0,10.0,63,0.00,,,0.00,Wunderground v.1.15,2013-10-13 14:20:00,
2013-10-13 09:25:00,49.0,36.1,30.43,ESE,119,10.0,11.0,61,0.00,,,0.00,Wunderground v.1.15,2013-10-13 14:25:00,
2013-10-13 09:30:00,49.8,36.9,30.43,ESE,121,10.0,31.0,61,0.00,,,0.00,Wunderground v.1.15,2013-10-13 14:30:00,
2013-10-13 09:35:00,50.3,36.5,30.43,ESE,120,10.0,31.0,59,0.00,,,0.00,Wunderground v.1.15,2013-10-13 14:35:00,
2013-10-13 09:40:00,51.0,36.3,30.43,ESE,123,10.0,31.0,57,0.00,,,0.00,Wunderground v.1.15,2013-10-13 14:40:00,
2013-10-13 09:45:00,51.5,36.3,30.42,SE,128,11.0,31.0,56,0.00,,,0.00,Wunderground v.1.15,2013-10-13 14:45:00,
2013-10-13 09:50:00,52.5,36.3,30.42,SE,129,12.0,31.0,54,0.00,,,0.00,Wunderground v.1.15,2013-10-13 14:50:00,
2013-10-13 10:00:00,53.6,35.9,30.43,SE,126,13.0,31.0,51,0.00,,,0.00,Wunderground v.1.15,2013-10-13 15:00:00,
2013-10-13 10:05:00,54.1,35.3,30.43,SE,138,13.0,31.0,49,0.00,,,0.00,Wunderground v.1.15,2013-10-13 15:05:00,
2013-10-13 10:10:00,54.4,35.1,30.43,SE,124,13.0,13.0,48,0.00,,,0.00,Wunderground v.1.15,2013-10-13 15:10:00,
2013-10-13 10:15:00,54.6,34.8,30.43,ESE,123,14.0,14.0,47,0.00,,,0.00,Wunderground v.1.15,2013-10-13 15:15:00,
2013-10-13 10:20:00,55.3,35.4,30.43,SE,128,14.0,14.0,47,0.00,,,0.00,Wunderground v.1.15,2013-10-13 15:20:00,
2013-10-13 10:25:00,56.0,35.5,30.43,SE,132,13.0,31.0,46,0.00,,,0.00,Wunderground v.1.15,2013-10-13 15:25:00,
2013-10-13 10:35:00,56.9,35.8,30.42,SE,126,12.0,31.0,45,0.00,,,0.00,Wunderground v.1.15,2013-10-13 15:35:00,
2013-10-13 10:40:00,57.5,36.3,30.42,ESE,123,12.0,31.0,45,0.00,,,0.00,Wunderground v.1.15,2013-10-13 15:40:00,
2013-10-13 10:45:00,57.8,35.4,30.42,SE,133,12.0,31.0,43,0.00,,,0.00,Wunderground v.1.15,2013-10-13 15:45:00,
2013-10-13 10:50:00,58.5,36.1,30.42,SE,128,13.0,13.0,43,0.00,,,0.00,Wunderground v.1.15,2013-10-13 15:50:00,
2013-10-13 10:55:00,58.9,34.0,30.42,ESE,123,15.0,17.0,39,0.00,,,0.00,Wunderground v.1.15,2013-10-13 15:55:00,
2013-10-13 11:00:00,59.2,34.9,30.42,SE,139,16.0,31.0,40,0.00,,,0.00,Wunderground v.1.15,2013-10-13 16:00:00,
2013-10-13 11:10:00,59.5,34.5,30.42,SE,132,18.0,18.0,39,0.00,,,0.00,Wunderground v.1.15,2013-10-13 16:10:00,
2013-10-13 11:15:00,59.9,33.5,30.42,SE,138,17.0,31.0,37,0.00,,,0.00,Wunderground v.1.15,2013-10-13 16:15:00,
2013-10-13 11:20:00,60.4,33.3,30.42,SE,134,18.0,31.0,36,0.00,,,0.00,Wunderground v.1.15,2013-10-13 16:20:00,
2013-10-13 11:25:00,60.2,33.8,30.42,ESE,122,19.0,31.0,37,0.00,,,0.00,Wunderground v.1.15,2013-10-13 16:25:00,
2013-10-13 11:30:00,60.4,33.3,30.42,ESE,122,18.0,31.0,36,0.00,,,0.00,Wunderground v.1.15,2013-10-13 16:30:00,
2013-10-13 11:40:00,61.1,33.2,30.42,SE,140,18.0,18.0,35,0.00,,,0.00,Wunderground v.1.15,2013-10-13 16:40:00,
2013-10-13 11:45:00,61.3,34.1,30.41,SE,146,18.0,31.0,36,0.00,,,0.00,Wunderground v.1.15,2013-10-13 16:45:00,
2013-10-13 11:50:00,61.4,34.2,30.41,SE,130,17.0,17.0,36,0.00,,,0.00,Wunderground v.1.15,2013-10-13 16:50:00,
2013-10-13 11:55:00,61.3,33.4,30.41,SE,141,18.0,19.0,35,0.00,,,0.00,Wunderground v.1.15,2013-10-13 16:55:00,
2013-10-13 12:00:00,61.6,34.4,30.41,SE,137,19.0,19.0,36,0.00,,,0.00,Wunderground v.1.15,2013-10-13 17:00:00,
2013-10-13 12:05:00,62.0,34.0,30.41,SE,125,17.0,31.0,35,0.00,,,0.00,Wunderground v.1.15,2013-10-13 17:05:00,
2013-10-13 12:15:00,62.2,34.2,30.41,SE,124,17.0,31.0,35,0.00,,,0.00,Wunderground v.1.15,2013-10-13 17:15:00,
2013-10-13 12:20:00,62.6,33.8,30.41,SSE,152,17.0,31.0,34,0.00,,,0.00,Wunderground v.1.15,2013-10-13 17:20:00,
2013-10-13 12:25:00,62.6,33.8,30.41,SE,140,17.0,31.0,34,0.00,,,0.00,Wunderground v.1.15,2013-10-13 17:25:00,
2013-10-13 12:30:00,63.0,34.9,30.40,SSE,161,17.0,17.0,35,0.00,,,0.00,Wunderground v.1.15,2013-10-13 17:30:00,
2013-10-13 12:35:00,63.2,34.3,30.40,SSE,153,16.0,22.0,34,0.00,,,0.00,Wunderground v.1.15,2013-10-13 17:35:00,
2013-10-13 12:45:00,63.9,33.4,30.40,ESE,118,17.0,31.0,32,0.00,,,0.00,Wunderground v.1.15,2013-10-13 17:45:00,
2013-10-13 12:50:00,64.0,33.5,30.40,ESE,121,17.0,17.0,32,0.00,,,0.00,Wunderground v.1.15,2013-10-13 17:50:00,
2013-10-13 12:55:00,64.6,34.1,30.39,SE,128,18.0,18.0,32,0.00,,,0.00,Wunderground v.1.15,2013-10-13 17:55:00,
2013-10-13 13:00:00,64.7,34.1,30.39,SSE,153,17.0,17.0,32,0.00,,,0.00,Wunderground v.1.15,2013-10-13 18:00:00,
2013-10-13 13:05:00,64.8,34.2,30.39,SSE,148,16.0,31.0,32,0.00,,,0.00,Wunderground v.1.15,2013-10-13 18:05:00,
2013-10-13 13:10:00,65.2,33.8,30.39,SSE,147,17.0,31.0,31,0.00,,,0.00,Wunderground v.1.15,2013-10-13 18:10:00,
2013-10-13 13:15:00,64.8,33.4,30.38,SSE,150,18.0,31.0,31,0.00,,,0.00,Wunderground v.1.15,2013-10-13 18:15:00,
2013-10-13 13:20:00,65.1,33.7,30.38,SE,142,17.0,17.0,31,0.00,,,0.00,Wunderground v.1.15,2013-10-13 18:20:00,
2013-10-13 13:25:00,65.2,33.8,30.38,SE,136,17.0,19.0,31,0.00,,,0.00,Wunderground v.1.15,2013-10-13 18:25:00,
2013-10-13 13:30:00,65.0,32.8,30.37,SSE,148,17.0,31.0,30,0.00,,,0.00,Wunderground v.1.15,2013-10-13 18:30:00,
2013-10-13 13:35:00,65.2,33.8,30.37,SE,141,19.0,31.0,31,0.00,,,0.00,Wunderground v.1.15,2013-10-13 18:35:00,
2013-10-13 13:40:00,65.4,33.1,30.37,SE,141,18.0,31.0,30,0.00,,,0.00,Wunderground v.1.15,2013-10-13 18:40:00,
2013-10-13 13:50:00,65.5,33.2,30.36,SE,136,19.0,19.0,30,0.00,,,0.00,Wunderground v.1.15,2013-10-13 18:50:00,
2013-10-13 13:55:00,65.7,33.4,30.36,SE,136,18.0,31.0,30,0.00,,,0.00,Wunderground v.1.15,2013-10-13 18:55:00,
2013-10-13 14:00:00,65.7,33.4,30.36,SSE,153,18.0,31.0,30,0.00,,,0.00,Wunderground v.1.15,2013-10-13 19:00:00,
2013-10-13 14:05:00,65.4,33.1,30.35,SSE,147,19.0,31.0,30,0.00,,,0.00,Wunderground v.1.15,2013-10-13 19:05:00,
2013-10-13 14:10:00,66.3,33.9,30.35,SE,142,17.0,31.0,30,0.00,,,0.00,Wunderground v.1.15,2013-10-13 19:10:00,
2013-10-13 14:20:00,65.9,33.6,30.35,SE,138,17.0,17.0,30,0.00,,,0.00,Wunderground v.1.15,2013-10-13 19:20:00,
2013-10-13 14:25:00,65.9,34.4,30.34,SE,132,17.0,31.0,31,0.00,,,0.00,Wunderground v.1.15,2013-10-13 19:25:00,
2013-10-13 14:30:00,66.1,34.6,30.34,SE,132,17.0,31.0,31,0.00,,,0.00,Wunderground v.1.15,2013-10-13 19:30:00,
2013-10-13 14:35:00,66.6,35.0,30.34,SSE,155,18.0,31.0,31,0.00,,,0.00,Wunderground v.1.15,2013-10-13 19:35:00,
2013-10-13 14:40:00,66.5,34.9,30.34,SE,136,16.0,16.0,31,0.00,,,0.00,Wunderground v.1.15,2013-10-13 19:40:00,
2013-10-13 14:45:00,66.7,35.1,30.33,SE,127,16.0,31.0,31,0.00,,,0.00,Wunderground v.1.15,2013-10-13 19:45:00,
2013-10-13 14:55:00,66.6,34.2,30.33,SSE,148,18.0,18.0,30,0.00,,,0.00,Wunderground v.1.15,2013-10-13 19:55:00,
2013-10-13 15:00:00,66.9,34.4,30.32,SSE,153,18.0,31.0,30,0.00,,,0.00,Wunderground v.1.15,2013-10-13 20:00:00,
2013-10-13 15:05:00,66.7,35.1,30.32,SE,143,17.0,31.0,31,0.00,,,0.00,Wunderground v.1.15,2013-10-13 20:05:00,
2013-10-13 15:10:00,67.3,34.8,30.32,SE,142,16.0,31.0,30,0.00,,,0.00,Wunderground v.1.15,2013-10-13 20:10:00,
2013-10-13 15:15:00,67.0,34.5,30.32,SSE,154,16.0,31.0,30,0.00,,,0.00,Wunderground v.1.15,2013-10-13 20:15:00,
2013-10-13 15:25:00,67.6,34.2,30.31,ESE,115,18.0,31.0,29,0.00,,,0.00,Wunderground v.1.15,2013-10-13 20:25:00,
2013-10-13 15:30:00,67.4,34.9,30.31,SE,129,18.0,18.0,30,0.00,,,0.00,Wunderground v.1.15,2013-10-13 20:30:00,
2013-10-13 15:35:00,67.3,34.8,30.31,SSE,147,19.0,21.0,30,0.00,,,0.00,Wunderground v.1.15,2013-10-13 20:35:00,
2013-10-13 15:40:00,67.2,34.7,30.30,SSE,159,19.0,19.0,30,0.00,,,0.00,Wunderground v.1.15,2013-10-13 20:40:00,
2013-10-13 15:45:00,67.7,36.0,30.30,SE,135,19.0,22.0,31,0.00,,,0.00,Wunderground v.1.15,2013-10-13 20:45:00,
2013-10-13 15:50:00,67.2,35.5,30.30,SSE,148,18.0,18.0,31,0.00,,,0.00,Wunderground v.1.15,2013-10-13 20:50:00,
2013-10-13 16:00:00,67.4,34.9,30.30,SE,128,17.0,31.0,30,0.00,,,0.00,Wunderground v.1.15,2013-10-13 21:00:00,
2013-10-13 16:05:00,67.3,34.8,30.29,SE,146,18.0,31.0,30,0.00,,,0.00,Wunderground v.1.15,2013-10-13 21:05:00,
2013-10-13 16:10:00,67.5,35.0,30.29,SE,136,17.0,31.0,30,0.00,,,0.00,Wunderground v.1.15,2013-10-13 21:10:00,
2013-10-13 16:15:00,67.6,35.9,30.29,SE,139,16.0,31.0,31,0.00,,,0.00,Wunderground v.1.15,2013-10-13 21:15:00,
2013-10-13 16:20:00,67.6,34.2,30.29,SSE,155,18.0,31.0,29,0.00,,,0.00,Wunderground v.1.15,2013-10-13 21:20:00,
2013-10-13 16:30:00,67.5,35.8,30.29,SE,126,18.0,31.0,31,0.00,,,0.00,Wunderground v.1.15,2013-10-13 21:30:00,
2013-10-13 16:35:00,67.4,34.9,30.28,SE,138,17.0,31.0,30,0.00,,,0.00,Wunderground v.1.15,2013-10-13 21:35:00,
2013-10-13 16:40:00,67.4,34.9,30.28,ESE,123,18.0,31.0,30,0.00,,,0.00,Wunderground v.1.15,2013-10-13 21:40:00,
2013-10-13 16:45:00,67.3,34.8,30.28,SE,138,18.0,31.0,30,0.00,,,0.00,Wunderground v.1.15,2013-10-13 21:45:00,
2013-10-13 16:50:00,67.5,34.1,30.28,SE,142,17.0,31.0,29,0.00,,,0.00,Wunderground v.1.15,2013-10-13 21:50:00,
2013-10-13 16:55:00,67.1,35.4,30.28,SE,140,18.0,31.0,31,0.00,,,0.00,Wunderground v.1.15,2013-10-13 21:55:00,
2013-10-13 17:00:00,67.2,34.7,30.27,SE,131,18.0,31.0,30,0.00,,,0.00,Wunderground v.1.15,2013-10-13 22:00:00,
2013-10-13 17:05:00,67.0,34.5,30.27,SE,132,17.0,31.0,30,0.00,,,0.00,Wunderground v.1.15,2013-10-13 22:05:00,
2013-10-13 17:10:00,66.9,35.3,30.27,SE,134,18.0,18.0,31,0.00,,,0.00,Wunderground v.1.15,2013-10-13 22:10:00,
2013-10-13 17:15:00,66.9,34.4,30.27,SE,133,18.0,31.0,30,0.00,,,0.00,Wunderground v.1.15,2013-10-13 22:15:00,
2013-10-13 17:20:00,66.7,34.3,30.27,SE,138,17.0,17.0,30,0.00,,,0.00,Wunderground v.1.15,2013-10-13 22:20:00,
2013-10-13 17:25:00,66.7,35.1,30.27,SE,138,17.0,31.0,31,0.00,,,0.00,Wunderground v.1.15,2013-10-13 22:25:00,
2013-10-13 17:35:00,66.3,34.7,30.26,SE,143,19.0,31.0,31,0.00,,,0.00,Wunderground v.1.15,2013-10-13 22:35:00,
2013-10-13 17:40:00,66.2,33.8,30.26,SE,135,20.0,31.0,30,0.00,,,0.00,Wunderground v.1.15,2013-10-13 22:40:00,
2013-10-13 17:45:00,66.1,34.6,30.26,SE,138,21.0,31.0,31,0.00,,,0.00,Wunderground v.1.15,2013-10-13 22:45:00,
2013-10-13 17:50:00,65.9,34.4,30.26,SE,135,20.0,20.0,31,0.00,,,0.00,Wunderground v.1.15,2013-10-13 22:50:00,
2013-10-13 17:55:00,65.7,34.2,30.27,SE,136,19.0,31.0,31,0.00,,,0.00,Wunderground v.1.15,2013-10-13 22:55:00,
2013-10-13 18:05:00,65.3,34.7,30.27,SE,143,18.0,31.0,32,0.00,,,0.00,Wunderground v.1.15,2013-10-13 23:05:00,
2013-10-13 18:10:00,65.0,35.2,30.27,SE,144,18.0,18.0,33,0.00,,,0.00,Wunderground v.1.15,2013-10-13 23:10:00,
2013-10-13 18:15:00,64.7,34.9,30.27,SE,130,16.0,31.0,33,0.00,,,0.00,Wunderground v.1.15,2013-10-13 23:15:00,
2013-10-13 18:20:00,64.5,35.5,30.27,SE,138,15.0,31.0,34,0.00,,,0.00,Wunderground v.1.15,2013-10-13 23:20:00,
2013-10-13 18:25:00,64.1,35.9,30.27,SE,136,15.0,31.0,35,0.00,,,0.00,Wunderground v.1.15,2013-10-13 23:25:00,
2013-10-13 18:30:00,63.7,35.5,30.27,SE,137,13.0,13.0,35,0.00,,,0.00,Wunderground v.1.15,2013-10-13 23:30:00,
2013-10-13 18:40:00,62.6,35.9,30.27,SE,133,11.0,31.0,37,0.00,,,0.00,Wunderground v.1.15,2013-10-13 23:40:00,
2013-10-13 18:45:00,62.1,36.2,30.27,SE,126,11.0,31.0,38,0.00,,,0.00,Wunderground v.1.15,2013-10-13 23:45:00,
2013-10-13 18:50:00,61.6,36.4,30.27,SE,130,11.0,31.0,39,0.00,,,0.00,Wunderground v.1.15,2013-10-13 23:50:00,
2013-10-13 18:55:00,61.1,35.9,30.27,SE,134,10.0,31.0,39,0.00,,,0.00,Wunderground v.1.15,2013-10-13 23:55:00,
2013-10-13 19:00:00,60.5,36.7,30.28,SE,126,9.0,9.0,41,0.00,,,0.00,Wunderground v.1.15,2013-10-14 00:00:00,
2013-10-13 19:10:00,59.6,36.5,30.28,SE,125,8.0,8.0,42,0.00,,,0.00,Wunderground v.1.15,2013-10-14 00:10:00,
2013-10-13 19:15:00,59.0,36.5,30.28,SE,125,8.0,31.0,43,0.00,,,0.00,Wunderground v.1.15,2013-10-14 00:15:00,
2013-10-13 19:20:00,58.5,36.6,30.27,SE,124,8.0,31.0,44,0.00,,,0.00,Wunderground v.1.15,2013-10-14 00:20:00,
2013-10-13 19:25:00,57.9,36.7,30.27,ESE,121,8.0,31.0,45,0.00,,,0.00,Wunderground v.1.15,2013-10-14 00:25:00,
2013-10-13 19:30:00,57.2,36.6,30.27,ESE,121,8.0,31.0,46,0.00,,,0.00,Wunderground v.1.15,2013-10-14 00:30:00,
2013-10-13 19:35:00,56.8,36.8,30.26,ESE,119,9.0,31.0,47,0.00,,,0.00,Wunderground v.1.15,2013-10-14 00:35:00,
2013-10-13 19:45:00,56.6,36.6,30.27,ESE,117,8.0,31.0,47,0.00,,,0.00,Wunderground v.1.15,2013-10-14 00:45:00,
2013-10-13 19:50:00,56.4,36.4,30.27,ESE,108,7.0,31.0,47,0.00,,,0.00,Wunderground v.1.15,2013-10-14 00:50:00,
2013-10-13 19:55:00,56.4,36.4,30.27,ESE,111,7.0,31.0,47,0.00,,,0.00,Wunderground v.1.15,2013-10-14 00:55:00,
2013-10-13 20:00:00,56.2,36.8,30.27,ESE,108,7.0,7.0,48,0.00,,,0.00,Wunderground v.1.15,2013-10-14 01:00:00,
2013-10-13 20:05:00,55.9,36.5,30.27,ESE,108,7.0,31.0,48,0.00,,,0.00,Wunderground v.1.15,2013-10-14 01:05:00,
2013-10-13 20:15:00,55.1,36.8,30.28,ESE,114,5.0,31.0,50,0.00,,,0.00,Wunderground v.1.15,2013-10-14 01:15:00,
2013-10-13 20:20:00,54.6,36.8,30.28,ESE,113,4.0,31.0,51,0.00,,,0.00,Wunderground v.1.15,2013-10-14 01:20:00,
2013-10-13 20:25:00,54.6,37.3,30.28,ESE,113,5.0,31.0,52,0.00,,,0.00,Wunderground v.1.15,2013-10-14 01:25:00,
2013-10-13 20:30:00,54.5,37.2,30.28,ESE,113,5.0,5.0,52,0.00,,,0.00,Wunderground v.1.15,2013-10-14 01:30:00,
2013-10-13 20:35:00,54.4,37.6,30.28,ESE,115,5.0,7.0,53,0.00,,,0.00,Wunderground v.1.15,2013-10-14 01:35:00,
2013-10-13 20:40:00,54.1,37.3,30.28,ESE,118,7.0,31.0,53,0.00,,,0.00,Wunderground v.1.15,2013-10-14 01:40:00,
2013-10-13 20:45:00,53.6,37.8,30.28,ESE,120,7.0,31.0,55,0.00,,,0.00,Wunderground v.1.15,2013-10-14 01:45:00,
2013-10-13 20:50:00,53.3,37.5,30.28,ESE,122,7.0,31.0,55,0.00,,,0.00,Wunderground v.1.15,2013-10-14 01:50:00,
2013-10-13 20:55:00,53.2,37.9,30.28,ESE,119,8.0,31.0,56,0.00,,,0.00,Wunderground v.1.15,2013-10-14 01:55:00,
2013-10-13 21:00:00,53.2,37.9,30.28,ESE,123,8.0,31.0,56,0.00,,,0.00,Wunderground v.1.15,2013-10-14 02:00:00,
2013-10-13 21:05:00,53.5,37.7,30.28,ESE,121,9.0,31.0,55,0.00,,,0.00,Wunderground v.1.15,2013-10-14 02:05:00,
2013-10-13 21:10:00,53.5,38.2,30.28,ESE,119,9.0,9.0,56,0.00,,,0.00,Wunderground v.1.15,2013-10-14 02:10:00,
2013-10-13 21:20:00,52.7,37.9,30.28,ESE,119,9.0,9.0,57,0.00,,,0.00,Wunderground v.1.15,2013-10-14 02:20:00,
2013-10-13 21:25:00,52.3,38.0,30.28,ESE,121,9.0,31.0,58,0.00,,,0.00,Wunderground v.1.15,2013-10-14 02:25:00,
2013-10-13 21:30:00,51.8,37.9,30.28,ESE,123,8.0,31.0,59,0.00,,,0.00,Wunderground v.1.15,2013-10-14 02:30:00,
2013-10-13 21:35:00,52.1,38.2,30.28,ESE,118,9.0,31.0,59,0.00,,,0.00,Wunderground v.1.15,2013-10-14 02:35:00,
2013-10-13 21:40:00,52.9,38.5,30.28,ESE,116,10.0,31.0,58,0.00,,,0.00,Wunderground v.1.15,2013-10-14 02:40:00,
2013-10-13 21:50:00,54.4,39.0,30.28,ESE,122,11.0,31.0,56,0.00,,,0.00,Wunderground v.1.15,2013-10-14 02:50:00,
2013-10-13 21:55:00,54.5,38.7,30.28,SE,124,11.0,31.0,55,0.00,,,0.00,Wunderground v.1.15,2013-10-14 02:55:00,
2013-10-13 22:00:00,54.4,38.6,30.28,SE,124,11.0,11.0,55,0.00,,,0.00,Wunderground v.1.15,2013-10-14 03:00:00,
2013-10-13 22:05:00,54.5,38.7,30.28,ESE,117,10.0,12.0,55,0.00,,,0.00,Wunderground v.1.15,2013-10-14 03:05:00,
2013-10-13 22:10:00,54.8,38.9,30.28,ESE,121,10.0,31.0,55,0.00,,,0.00,Wunderground v.1.15,2013-10-14 03:10:00,
2013-10-13 22:15:00,55.0,38.6,30.28,SE,132,10.0,31.0,54,0.00,,,0.00,Wunderground v.1.15,2013-10-14 03:15:00,
2013-10-13 22:25:00,55.7,38.8,30.28,SE,130,12.0,31.0,53,0.00,,,0.00,Wunderground v.1.15,2013-10-14 03:25:00,
2013-10-13 22:30:00,56.0,38.6,30.28,SE,125,12.0,12.0,52,0.00,,,0.00,Wunderground v.1.15,2013-10-14 03:30:00,
2013-10-13 22:35:00,56.0,38.6,30.28,SE,125,11.0,31.0,52,0.00,,,0.00,Wunderground v.1.15,2013-10-14 03:35:00,
2013-10-13 22:40:00,56.0,38.6,30.28,ESE,123,11.0,31.0,52,0.00,,,0.00,Wunderground v.1.15,2013-10-14 03:40:00,
2013-10-13 22:45:00,56.0,38.6,30.27,SE,137,11.0,31.0,52,0.00,,,0.00,Wunderground v.1.15,2013-10-14 03:45:00,
2013-10-13 22:55:00,56.8,38.3,30.27,SE,136,14.0,17.0,50,0.00,,,0.00,Wunderground v.1.15,2013-10-14 03:55:00,
2013-10-13 23:00:00,57.0,38.5,30.27,SE,128,15.0,31.0,50,0.00,,,0.00,Wunderground v.1.15,2013-10-14 04:00:00,
2013-10-13 23:05:00,57.0,38.5,30.26,SE,131,17.0,31.0,50,0.00,,,0.00,Wunderground v.1.15,2013-10-14 04:05:00,
2013-10-13 23:10:00,56.8,38.3,30.27,SE,137,17.0,17.0,50,0.00,,,0.00,Wunderground v.1.15,2013-10-14 04:10:00,
2013-10-13 23:15:00,56.8,38.9,30.26,SE,129,17.0,31.0,51,0.00,,,0.00,Wunderground v.1.15,2013-10-14 04:15:00,
2013-10-13 23:20:00,56.6,38.7,30.26,SE,129,17.0,17.0,51,0.00,,,0.00,Wunderground v.1.15,2013-10-14 04:20:00,
2013-10-13 23:30:00,56.3,38.9,30.26,SE,139,15.0,31.0,52,0.00,,,0.00,Wunderground v.1.15,2013-10-14 04:30:00,
2013-10-13 23:35:00,56.4,39.0,30.26,SE,136,14.0,31.0,52,0.00,,,0.00,Wunderground v.1.15,2013-10-14 04:35:00,
2013-10-13 23:40:00,56.3,38.9,30.26,SE,136,14.0,14.0,52,0.00,,,0.00,Wunderground v.1.15,2013-10-14 04:40:00,
2013-10-13 23:45:00,56.2,38.8,30.25,ESE,123,13.0,31.0,52,0.00,,,0.00,Wunderground v.1.15,2013-10-14 04:45:00,
2013-10-13 23:50:00,56.0,39.1,30.25,SE,128,12.0,31.0,53,0.00,,,0.00,Wunderground v.1.15,2013-10-14 04:50:00,
2013-10-13 23:55:00,56.1,39.2,30.25,ESE,122,13.0,31.0,53,0.00,,,0.00,Wunderground v.1.15,2013-10-14 04:55:00,